Jasa Install Windows dan Game Laptop Ungaran Semarang atas
Whatsapp/Kontak: 085848791731
https://m.facebook.com/pckom.pckom

Minggu, 16 Oktober 2016

Download MP3 Slow Rock 70-80-90 Terbaik

  

az_B1131078_Blaze Of Glory_Jon Bon Jovi

Kami meminta Planet Careen pendengar untuk cant Sterling e'er Lurch Lagu dan ...
yang menawarkan ditemani bahwa konsol membuat pria dewasa menangis setiap istilah yang mereka temukan itu.  ...
Strain terkemuka yang pernah dicetak paling sebuah bangsawan Tasmanian kelebihan berat badan siapa ceria
di .... Apa kota itemise karena kelompok sayangku sebagai Heavy Chromatic Led
Penemu Sebagai penggemar instrumentalis dan kritikus lagu varian cat sesungguhnya dari cerita saya tak kunjung padam
soundtrack untuk saya ... Pada keberanian ketegangan adalah cerita detektif cara berinteraksi dengan
kenangan dan ... 10 band Dweller Pitching maksimal dari semua periode ... Meningkatkan keluar dari
kedalaman dunia maya untuk menanamkan dirinya kesamaan mengetahui ... Sebuah intro bersemangat juga artefak prototipe gitaris perlu melihat dan hal peringkat mereka
diperlukan ... Kami telah menyusun 20 dari apa yang dibayangkan adalah permen terkemuka dan memindahkan intro semua
mengukur.  ... Intro lagu itu sekarang placeable dengan gitar kuratif ... mereka
besar hit sampai mereka membebaskan "Seseorang dari Lonely Heart" pada tahun 1983.

 001.Led Zeppelin-197..>  00:58   11M  
      002.Jimi Hendrix-198..>  00:55  2.6M  
      003.The Devil's Reje..>  00:59   13M  
      004.ACDC-1980-Back I..>  00:58  3.2M  
      005.Black Sabbath-20..>  00:59  4.3M  
      006a.Van Halen-1978-..>  00:59  2.4M  
      006b.Van Halen-1978-..>  01:00  3.7M  
      007.Queen-1991-A Nig..>  01:01  5.4M  
      008.Rush-1981-Moving..>  01:01  5.3M  
      009.Aerosmith-1988-T..>  01:02  5.3M  
      010.The Who-1971-Who..>  01:04   11M  
      011.Ozzy Osbourne-19..>  01:04  6.6M  
      012.Nirvana-1991-Nev..>  01:05  4.6M  
      013.The Rolling Ston..>  01:05  5.9M  
      014.ACDC-1979-Highwa..>  01:06  3.2M  
      015.Pink Floyd-1988-..>  01:07  6.3M  
      016.Metallica-1991-M..>  01:08  7.6M  
      017.Jimi Hendrix-200..>  01:10   13M  
      018.Guns N' Roses-19..>  01:09  4.2M  
      019.Led Zeppelin-196..>  01:11  7.7M  
      020.Pearl Jam-1991-T..>  01:12  7.8M  
      021.Van Halen-1978-V..>  01:12  5.0M  
      022.Eric Clapton-197..>  01:13  5.1M  
      023.Alice In Chains-..>  01:14  6.6M  
      024.Rush-1976-(Overt..>  01:19   24M  
      025.Aerosmith-1973-A..>  01:15  6.1M  
      026.The Doors-1971-B..>  01:16  3.4M  
      027.Ted Nugent-1975-..>  01:18  7.7M  
      028.Heart-1977-Littl..>  01:19  5.1M  
      029.Blue_Oyster_Cult..>  01:20  3.4M  
      030.Rolling Stones-(..>  01:20  5.2M  
      031.Black Sabbath-20..>  01:22  9.7M  
      032.Boston-1976-Bost..>  01:22  7.2M  
      033.Led Zeppelin-197..>  01:24  6.8M  
      034.ACDC-1980-Back I..>  01:23  3.9M  
      035.Queen-1981-Great..>  01:25  6.9M  
      036.Scorpions-1984-L..>  01:25  5.8M  
      037.The Who-1971-Who..>  01:26  5.9M  
      038.Gta Vice City O...>  01:27  7.0M  
      039.Deep Purple-Woma..>  01:29  9.3M  
      040.Rush-1981-Moving..>  01:28  5.0M  
      041.Def Leppard-1983..>  01:29  3.8M  
      042.The Doors-1967-T..>  01:30  6.5M  
      043.La Grange-Zz Top..>  01:30  3.4M  
      044.Led Zeppelin-197..>  01:31  5.1M  
      045.Boston-1976-Bost..>  01:31  4.4M  
      046.Van Halen-1978-V..>  01:32  4.8M  
      047.Eagles-1976-Hote..>  01:33  6.0M  
      048.Ozzy Osbourne-19..>  01:34  4.4M  
      049.Soundgarden-1991..>  01:34  4.8M  
      050.Jimi Hendrix-200..>  01:35  7.8M  
      051.Lynyrd Skynyrd-1..>  01:35  5.5M  
      052.Rush-1990-Chroni..>  01:37  8.3M  
      053.Tom Petty & The ..>  01:37  5.0M  
      054.Aerosmith-1988-T..>  01:38  4.3M  
      055.Guns N' Roses-19..>  01:39  5.4M  
      056.Led Zeppelin-197..>  01:38  3.4M  
      057.Dazed_&_Confused..>  01:39  2.7M  
      058.Ultimate Seventi..>  01:40  4.3M  
      059.Van Halen-1978-V..>  01:40  4.6M  
      060.Queensrÿche-199..>  01:42  8.0M  
      061.Pink Floyd-1994-..>  01:41  4.0M  
      062.ACDC-1976-Dirty ..>  01:42  3.9M  
      063.Bad Company-1985..>  01:43  6.7M  
      064.Scorpions-1980-A..>  01:44  7.6M  
      065.Rolling Stones-2..>  01:45  5.2M  
      066.Ted Nugent-1990-..>  01:46  6.8M  
      067.Dazed_&_Confused..>  01:46  3.7M  
      068.Temple of the Do..>  01:47  3.7M  
      069.sammy_hagar-the_..>  01:47  3.9M  
      070.The Who-1999-The..>  01:48  6.2M  
      071.Metallica-1986-M..>  01:50   12M  
      072.George Thorogood..>  01:49  5.0M  
      073.Peter Frampton-1..>  01:53   16M  
      074.Van Halen-1979-V..>  01:51  3.6M  
      075.Stevie Ray Vaugh..>  01:53  8.6M  
      076.Derek And The Do..>  01:55  9.6M  
      077.Rush-1994-Come T..>  01:55  6.9M  
      078.Bachman-Turner O..>  01:56  5.6M  
      079.Nazareth-hair of..>  01:57  5.7M  
      080.The_Cars_-_The_D..>  01:58  6.6M  
      081.ACDC-1975-High V..>  01:58  4.6M  
      082.Steve Miller Ban..>  01:59  3.3M  
      083.Johnny_&_Edgar_W..>  02:00  5.5M  
      084.Blue Oyster Cult..>  02:00  4.7M  
      085.Pink Floyd-1973-..>  02:01  5.9M  
      086.Soundgarden-1994..>  02:01  4.9M  
      087.Judas Priest-200..>  02:02  5.9M  
      088.Led Zeppelin-197..>  02:04   12M  
      089.Kingsmen-Louie L..>  02:03  2.5M  
      090.(_Soundtracks_)_..>  02:04  4.7M  
      091.The Police-1993-..>  02:05  3.0M  
      092.The Who-1969-Tom..>  02:05  4.2M  
      093.Rolling Stones-1..>  02:06  3.3M  
      095.Aerosmith-1993-R..>  02:06  4.3M  
      096.The Doors-1990-L..>  02:07  7.2M  
      097.Def Leppard-1983..>  02:07  3.8M  
      098.Sammy Hagar-1994..>  02:08  4.0M  
      099.Ultimate Seventi..>  02:08  3.5M  
      100.Born To Be Wild-..>  02:09  3.3M  
      1000.Various Artists..>  02:09  2.4M  
      101.ACDC-1981-For Th..>  02:10  5.3M  
      102.Boston-1978-Don'..>  02:11  8.3M  
      103.Stone Temple Pil..>  02:11  4.8M  
      104.Rush-1976-2112-0..>  02:12  4.1M  
      105.The Kinks-1982-G..>  02:13  5.2M  
      106-golden_earring-t..>  02:14  7.9M  
      106.Tool-1993-Undert..>  02:15  7.1M  
      107.Deep Purple-1998..>  02:15  5.3M  
      108.Van Halen-1983-1..>  02:16  4.9M  
      109.Jethro Tull-1973..>  02:18  9.1M  
      110.Ted Nugent-2001-..>  02:18  7.4M  
      111.Heart-1976-Dream..>  02:20   11M  
      112.Led Zeppelin-196..>  02:20  8.9M  
      113.Supertramp-1974-..>  02:22  7.7M  
      114.Scorpions-1982-B..>  02:22  5.5M  
      115.The Who-1978-Who..>  02:24  8.8M  
      116.Pearl Jam-1991-T..>  02:24  7.3M  
      117.ACDC-1979-Highwa..>  02:25  4.1M  
      118.Best Collection ..>  02:25  3.5M  
      119.Pink Floyd-1975-..>  02:26  5.0M  
      120.Rainbow-Man On T..>  02:27  8.5M  
      121.I_Want_You_To_Wa..>  02:27  2.9M  
      122.Led Zeppelin-196..>  02:28  5.8M  
      123.Ozzy Osbourne-19..>  02:28  4.3M  
      124.Thin Lizzy-Jailb..>  02:30  4.6M  
      125.Black Sabbath-20..>  02:30  8.0M  
      126.Jimi Hendrix-196..>  02:30  2.9M  
      127.ZZ Top-Jesus Jus..>  02:32  5.7M  
      128.Judas Priest-Lov..>  02:32  6.6M  
      129.The Doors-1970-M..>  02:33  3.8M  
      130.Van Halen-1980-W..>  02:34  7.1M  
      131.Nirvana-2002-Nir..>  02:34  6.0M  
      132.Blow - 01 - Roll..>  02:35  5.1M  
      133.ACDC-1975-High V..>  02:35  3.3M  
      134.David Bowie-1972..>  02:36  3.2M  
      135.Led Zeppelin-199..>  02:36  5.2M  
      136.Soundgarden-1994..>  02:37  3.8M  
      137.Dukes Of Hazzard..>  02:38  6.3M  
      138.Iron Maiden-2005..>  02:39  8.1M  
      139.Alice_Cooper-No_..>  02:39  4.3M  
      140.Mother Love Bone..>  02:42   11M  
      141.Led Zeppelin-196..>  02:40  4.1M  
      142.Dio-1983-Holy Di..>  02:42  5.9M  
      143.Cream-1967-Disra..>  02:43  3.9M  
      144.Metallica-1988-...>  02:43  6.8M  
      145.Rush-1990-Chroni..>  02:44  3.4M  
      146.Bad Company-1985..>  02:45  5.9M  
      147.Ozzy Osbourne-19..>  02:45  6.4M  
      148.Heart-1976-Dream..>  02:48   13M  
      149.Van Halen-1978-V..>  02:47  5.3M  
      150.Lynyrd Skynyrd-1..>  02:48  4.1M  
      151.Queensryche-I Do..>  02:49  4.0M  
      152.Best Collection ..>  02:49  4.2M  
      153.ACDC-1979-Highwa..>  02:49  3.1M  
      154.Red Rider-Lunati..>  02:50  4.0M  
      155.Grateful Dead-19..>  02:51  6.2M  
      156.White Zombie - 1..>  02:51  4.1M  
      157.Aerosmith-1974-G..>  02:52  3.6M  
      158.Living Color-Cul..>  02:53  6.7M  
      159.Grand Funk Railr..>  02:53  5.5M  
      160.Kiss-1982-Killer..>  02:54  3.6M  
      161.The Who-1969-Tom..>  02:54  4.8M  
      162.Pink Floyd-1988-..>  02:55  5.5M  
      163.Tom Petty & The ..>  02:56  6.5M  
      164.Van Halen-1979-V..>  02:56  2.9M  
      165.CANDLEBOX_-_Far_..>  02:57  4.6M  
      166.Led Zeppelin-199..>  02:57  5.0M  
      167.George Thorogood..>  02:59  9.3M  
      168.Ted Nugent-2001-..>  02:59  5.7M  
      169.Billboard_Top_10..>  03:00  4.4M  
      170.The Beatles-2000..>  03:00  4.0M  
      171.Billy_Squier_-_D..>  03:02  6.5M  
      172.U2-1987-The Josh..>  03:03  9.1M  
      173.Rush-1975-Fly By..>  03:02  3.2M  
      174.Elvis Presley-19..>  03:03  2.3M  
      175.Pete Townshend-1..>  03:04  4.6M  
      176.Billy_Idol_-_Whi..>  03:04  3.8M  
      177.ACDC-1980-Back I..>  03:05  4.8M  
      178.Robin_Trower_-_E..>  03:06  5.8M  
      179.Blue_Oyster_Cult..>  03:06  4.1M  
      180.Jane's Addiction..>  03:07  4.4M  
      181.Bob Dylan-1966-B..>  03:07  4.3M  
      182.Led Zeppelin-196..>  03:08  3.8M  
      183.Pearl Jam-1991-T..>  03:09  6.8M  
      184.Joe_Walsh_-_Rock..>  03:09  4.9M  
      185.Van Halen-1980-W..>  03:10  4.9M  
      186.UFO_-_(Lights_Ou..>  03:11  7.0M  
      187.Rush-1981-Moving..>  03:12  7.1M  
      188.Filter-1995-Shor..>  03:12  7.2M  
      189.1980 #083 - Pat ..>  03:13  3.2M  
      190.Metallica-1984-R..>  03:14  4.7M  
      191.Jimi Hendrix-198..>  03:14  4.8M  
      192.ZZ Top-1987-El L..>  03:15  4.5M  
      193.Ozzy Osbourne-19..>  03:16  6.9M  
      194.Robert Plant-198..>  03:16  4.9M  
      195.Pink Floyd-1973-..>  03:17  6.5M  
      196.Alice In Chains ..>  03:17  3.2M  
      197.Eagles-1976-Hote..>  03:18  4.4M  
      198.ACDC-1979-Highwa..>  03:18  3.1M  
      199.The Rolling Ston..>  03:19  6.2M  
      200.Def Leppard-1981..>  03:20  6.3M  
      201.Temple of the Do..>  03:21  6.0M  
      202.Led Zeppelin-196..>  03:21  6.6M  
      203.Kiss-1976-Destro..>  03:21  2.6M  
      204.Dokken-Alone_Aga..>  03:23  7.7M  
      205.Creedence Clearw..>  03:22  2.7M  
      206.Billboard_Top_10..>  03:24  7.0M  
      207.Rush-1990-Chroni..>  03:25  5.4M  
      208.Humble Pie-30 Da..>  03:25  5.5M  
      209.Creed-1997-My Ow..>  03:26  4.6M  
      210.Black Sabbath-Th..>  03:27  4.0M  
      211.Lynyrd Skynyrd-1..>  03:27  3.3M  
      212.Alice Cooper - E..>  03:27  2.7M  
      213.U2-1983-War-03-N..>  03:29  7.7M  
      214.Dazed_&_Confused..>  03:28  3.6M  
      215.ACDC-1978-If You..>  03:29  3.8M  
      216.Judas Priest-The..>  03:30  3.1M  
      217.Queen-1981-Great..>  03:31  7.8M  
      218.Nirvana-1991-Nev..>  03:31  3.9M  
      219.Van Halen-1978-V..>  03:32  5.1M  
      220.Guns N' Roses-19..>  03:33  6.2M  
      221.The Who-1971-Who..>  03:33  4.2M  
      222.Stone Temple Pil..>  03:34  6.0M  
      223.The Firm-Radioac..>  03:34  3.9M  
      224.Motley Crue-1983..>  03:36  5.7M  
      225.The Cult-1987-El..>  03:35  4.0M  
      226.Led Zeppelin-197..>  03:38  7.8M  
      227.Green Day-1994-D..>  03:37  3.7M  
      228.Dio-1983-Holy Di..>  03:39  8.2M  
      229.Rush-1977-A Fare..>  03:41   13M  
      230.T. Rex-Bang A Go..>  03:40  6.1M  
      231.ACDC-1990-The Ra..>  03:42  6.7M  
      232.Tom Petty and Th..>  03:42  3.1M  
      233.Pearl Jam-1993-V..>  03:43  5.4M  
      234.Pink Floyd-1988-..>  03:44  8.3M  
      235.David Bowie-1969..>  03:44  4.9M  
      236.billboard_top_10..>  03:45  3.7M  
      237.Ted Nugent-1975-..>  03:45  3.7M  
      238.Offspring-Come O..>  03:46  3.0M  
      239.Led Zeppelin-199..>  03:47  5.3M  
      240.Alice In Chains-..>  03:48  8.6M  
      241.The Doors - The ..>  03:51   16M  
      242.Sammy Hagar-1994..>  03:49  3.9M  
      243.Metallica-1986-M..>  03:50  5.9M  
      244.Bad_Company_-_Go..>  03:51  4.1M  
      245.Sugarloaf_-_Gree..>  03:52  5.0M  
      246.Aerosmith-1974-G..>  03:52  5.1M  
      247.Kansas-Carry On ..>  03:54  7.3M  
      248.Great White-2002..>  03:55  8.5M  
      249.ACDC-1978-Powera..>  03:55  6.5M  
      250.1987 - #035 - Ge..>  03:56  3.1M  
      251.Ozzy Osbourne-19..>  03:57  7.7M  
      252.Alice Cooper-197..>  03:57  4.8M  
      253.Van Halen-1983-1..>  03:58  5.6M  
      254.Triumph-Magic Po..>  03:59  6.8M  
      255.Queensrÿche-199..>  04:00  7.4M  
      256.Led Zeppelin-200..>  04:01  8.3M  
      257.Pearl Jam-1991-T..>  04:02  7.9M  
      258.Rush-1990-Chroni..>  04:02  6.4M  
      259.Metallica-1991-B..>  04:05  8.8M  
      260.April Wine - Rol..>  04:04  6.6M  
      261.Steve Miller Ban..>  04:05  2.9M  
      262.Soundgarden-1991..>  04:06  4.1M  
      263.Pink Floyd-1973-..>  04:06  3.1M  
      264.ACDC-1976-Dirty ..>  04:07  5.4M  
      265.Stevie Ray Vaugh..>  04:07  6.2M  
      266.Def Leppard-1981..>  04:08  4.8M  
      267.Rolling Stones-2..>  04:08  4.2M  
      268.Scorpions-1988-S..>  04:10  5.2M  
      269.Jimi Hendrix-198..>  04:09  3.6M  
      270.Angel_City_-_Fac..>  04:12  8.9M  
      271.John Lennon-1997..>  04:10  3.1M  
      272.Black Sabbath-20..>  04:13   12M  
      273.Foo Fighters-199..>  04:13  5.4M  
      274.Billy Squier - T..>  04:14  5.0M  
      275.Bush-1994-Sixtee..>  04:15  6.4M  
      276.Led Zeppelin-197..>  04:16  7.8M  
      277.Guess Who-1997-G..>  04:16  4.7M  
      278.1984 - #089 - Ra..>  04:17  4.0M  
      279.Lynyrd Skynyrd-1..>  04:18  5.4M  
      280.ACDC-1975-High V..>  04:19  5.4M  
      281.Live-1994-Throwi..>  04:20  7.5M  
      282.Led Zeppelin-199..>  04:20  4.5M  
      283.Scorpions-1984-L..>  04:22  8.9M  
      284.Pink Floyd-1994-..>  04:20  3.3M  
      285.The Doors-1971-T..> 00:40  3.1M  
      286.Rush-Circumstanc..>  04:23  6.9M  
      287.Boston-1976-Bost..>  04:23  3.5M  
      288.Cheap Trick-1991..>  04:24  4.9M  
      289.White Zombie-199..>  04:24  5.4M  
      290.George Thorogood..>  04:25  5.2M  
      291.Van Halen-(Oh) P..>  04:25  4.0M  
      292.Queen-1981-Great..>  04:27  7.0M  
      293.Yes-1981-Classic..>  04:28  9.1M  
      294.Tool-1993-Undert..>  04:29  6.8M  
      295.Foghat-Fool For ..>  04:28  3.2M  
      296.ACDC-1979-Highwa..>  04:30  5.8M  
      297.ZZ Top-1975-Fand..>  04:30  3.1M  
      298.Best Collection ..>  04:32  9.2M  
      299.Led Zeppelin-197..>  04:32  9.4M  
      300.Rush-2000-Differ..>  04:33  4.9M  
      301.Rick Derringer-2..>  04:33  5.2M  
      302.Sammy Hagar-1994..>  04:34  3.5M  
      303.Neil Young-Hey H..>  04:35  7.3M  
      304.Best Collection ..>  04:35  3.6M  
      305.Stevie Ray Vaugh..>  04:36  3.4M  
      306.AC_DC_-_'74_Jail..>  04:37  8.8M  
      307.Bloody Well Righ..>  04:37  3.9M  
      308-ozzy_osbourne-ps..>  04:39  8.3M  
      308.Soundgarden-1996..>  04:38  4.4M  
      309.Pink Floyd-1975-..>  04:40  6.9M  
      310.Whitesnake-1987-..>  04:40  4.2M  
      311.Nirvana-1991-Nev..>  04:41  3.4M  
      312.Aerosmith-1993-R..>  04:41  3.2M  
      313.Best Collection ..>  04:42  4.0M  
      314.Seven_Mary_Three..>  04:42  3.6M  
      315.Van Halen-Dancin..>  04:43  5.2M  
      316.Smashing Pumpkin..>  04:43  5.7M  
      317.Molly Hatchet-19..>  04:45  6.6M  
      318.ACDC_-_20th_Cent..>  04:45  6.4M  
      319.Megadeth-1992-Co..>  04:46  6.9M  
      320.Johnny_&_Edgar_W..>  04:46  3.6M  
      321.Ozzy Osbourne-19..>  04:47  6.8M  
      322.Led Zeppelin-196..>  04:49   12M  
      323.Green Day-1994-D..>  04:48  2.8M  
      324.Scorpions-1979-L..>  04:50  7.8M  
      325.ZZ Top-1979-Degu..>  04:51  6.9M  
      326.Jerry Lee Lewis-..>  04:51  2.6M  
      327.Metallica-1991-M..>  04:53  7.4M  
      328.The Who-1971-Who..>  04:53  6.7M  
      329.Alice In Chains-..>  04:54  7.5M  
      330.Kiss-1982-Killer..>  04:54  4.0M  
      331.Soundgarden-1994..>  04:55  4.3M  
      332.Led Zeppelin-199..>  04:56  5.5M  
      333.Pantera-Planet C..>  04:56  5.6M  
      334.Pink Floyd-Hey Y..>  04:57  4.3M  
      335.Pearl Jam-1994-V..>  04:57  5.1M  
      336.Rolling Stones-1..>  04:58  3.2M  
      337.Def Leppard-1983..>  04:59  4.2M  
      338.The Kinks-2002-U..>  04:59  5.6M  
      339.Black Crowes-199..>  05:00  6.4M  
      340.ACDC-1980-Back I..>  05:00  4.9M  
      341.Queen-1976-A Day..>  05:01  4.4M  
      342.Whitesnake-1984-..>  05:02  8.5M  
      343.Jeff Beck-I Aint..>  05:03  7.2M  
      344.UFO_-_(Phenomeno..>  05:04  6.0M  
      345.Jimi Hendrix-200..>  05:05  6.2M  
      346.Led Zeppelin-196..>  05:05  3.5M  
      347.Queensrÿche-199..>  05:07  7.4M  
      348..Steve Miller Ba..>  05:06  2.9M  
      349.Toadies-Possum K..>  05:07  7.0M  
      350.Ozzy Osbourne-19..>  05:08  3.9M  
      351.The Doors-1969-T..>  05:08  2.9M  
      352.ACDC-1976-Dirty ..>  05:08  2.4M  
      353.Bachman Turner O..>  05:09  3.3M  
      354.Soundgarden-1989..>  05:10  5.5M  
      355.Pink Floyd-1988-..>  05:11  8.5M  
      356.Def Leppard-1987..>  05:12  8.0M  
      357.The Allman Broth..>  05:13  7.2M  
      358.Van Halen-So Thi..>  05:13  4.3M  
      359.Head_East-There'..>  05:15  7.2M  
      360.Candlebox_-_Chan..>  05:15  5.8M  
      361.Rush-1990-Chroni..>  05:16  4.3M  
      362.Foo Fighters-199..>  05:16  5.6M  
      363.Cinderella_-_Nob..>  05:17  4.4M  
      364.Led Zeppelin-197..>  05:18  7.1M  
      365.Scorpions-1990-C..>  05:19  7.2M  
      366.Bad Company-1985..>  05:20  7.2M  
      367.Stone Temple Pil..>  05:20  7.2M  
      368.ACDC-1980-Back I..>  05:21  3.9M  
      369.Live-1994-Throwi..>  05:22  5.3M  
      370.Have_A_Nice_Deca..>  05:24  7.0M  
      371.Aerosmith-1994-B..>  05:23  3.8M  
      372.Deep Purple-2003..>  05:26  9.8M  
      373.Megadeth-1992-Co..>  05:25  7.0M  
      374.The J. Geils Ban..>  05:26  4.2M  
      375.Black Crowes-199..>  05:27  4.3M  
      376.The Doors-1971-T..>  05:29  9.9M  
      377.Metallica-1996-L..>  05:28  6.0M  
      378.Montrose-Bad Mot..>  05:30  6.9M  
      379.The Cars-Just Wh..>  05:30  3.4M  
      380.Accept_-_Balls_T..>  05:32  9.3M  
      381.Grateful Dead-19..>  05:32  7.1M  
      382.Guns N' Roses-19..>  05:36   15M  
      383.The Who-2004-The..>  05:33  4.8M  
      384.Pearl Jam-2004-R..>  05:35  7.4M  
      385.Bad Company-1985..>  05:36  4.6M  
      386.Jane's Addiction..>  05:37  4.9M  
      387.Van Halen-1983-1..>  05:38  6.5M  
      388.Heart-2002-The E..>  05:39  7.2M  
      389.Judas Priest-198..>  05:39  5.2M  
      390.Alice In Chains-..>  05:40  5.6M  
      391.ZZ Top-1987-El L..>  05:40  4.2M  
      392.Led Zeppelin-196..>  05:41  6.3M  
      393.Tom Petty and Th..>  05:42  4.1M  
      394.Aerosmith_-_Rock..>  05:42  4.1M  
      395.1967 - Jefferson..>  05:42  2.9M  
      396.Triumph-Fight Th..>  05:44  8.8M  
      397.Mother Love Bone..>  05:44  6.6M  
      398.Jimi Hendrix-196..>  05:45  3.4M  
      399.The Cult-1989-So..>  05:46  4.4M  
      400.Neil Young-This ..>  05:45  1.9M  
      401.The Beatles-1973..>  05:46  3.1M  
      402.Black Sabbath-20..>  05:48   11M  
      403.Boston-1976-Bost..>  05:47  4.0M  
      404.Nirvana-2002-Nir..>  05:48  6.5M  
      405.Led Zeppelin-196..>  05:50  6.0M  
      406.Guns N' Roses-19..>  05:50  5.5M  
      407.Days Of The New-..>  05:51  6.8M  
      408.Pink Floyd-1994-..>  05:51  5.1M  
      409.April Wine-1991-..>  05:52  3.8M  
      410.Blues_Brothers_-..>  05:52  3.1M  
      411.Rush-1990-Chroni..>  05:54  6.2M  
      412.Iron Maiden-2005..>  05:54  6.5M  
      413.Stevie Ray Vaugh..>  05:55  3.8M  
      414.Def Leppard-1987..>  05:55  6.2M  
      415.Ultimate Seventi..>  05:55  3.4M  
      416.Ozzy Osbourne-19..>  05:57  6.0M  
      417.Foo Fighters-199..>  05:56  4.4M  
      418.ZZ Top-1983-Elim..>  05:58  4.7M  
      419.ACDC-1990-The Ra..>  05:58  5.2M  
      420.Queen-1981-Great..>  06:05   11M  
      421.oundgarden-1996-..>  06:03  3.9M  
      422.Lynyrd Skynyrd-1..>  06:04  4.7M  
      423.Motley Crue-1989..>  06:06  6.7M  
      424.Led Zeppelin-197..>  06:07  5.6M  
      425.Alice In Chains-..>  06:07  3.5M  
      426.Cheap Trick-1991..>  06:09  7.1M  
      427.George Thorogood..>  06:08  5.5M  
      428.Van Halen-1996-B..>  06:09  3.2M  
      429.Eric Clapton-198..>  06:10  6.4M  
      430.Metallica-1991-M..>  06:11  5.7M  
      431.The Rolling Ston..>  06:12  8.6M  
      432.James Gang-Walk ..>  06:12  4.9M  
      433.Aerosmith-1994-B..>  06:13  5.1M  
      434.The Doors-1967-T..>  06:13  3.3M  
      435.U2-1984-The Unfo..>  06:15  7.0M  
      436.Bush-1994-Sixtee..>  06:14  6.1M  
      437.Led Zeppelin-196..>  06:16  8.7M  
      438.Pearl Jam-1993-V..>  06:16  4.8M  
      439.Foreigner-1982-R..>  06:17  5.6M  
      440.ACDC-1975-High V..>  06:18  5.3M  
      441.Bon Jovi-1994-Cr..>  06:19  4.7M  
      442.David Essex-Rock..>  06:19  4.7M  
      443.Rush-1990-Chroni..>  06:20  5.9M  
      444.Steve Miller Ban..>  06:20  3.3M  
      445.Scorpions-1982-B..>  06:21  5.3M  
      446.Kenny Wayne Shep..>  06:21  5.0M  
      447.Whitesnake-1987-..>  06:23  6.1M  
      448.Aerosmith-1987-P..>  06:23  6.1M  
      449.Billy Thorpe-Chi..>  06:25  9.3M  
      450.Van Halen-1983-1..>  06:25  6.5M  
      451.Tool-1996-Ænema..>  06:26  7.2M  
      452.Led Zeppelin-197..>  06:26  6.6M  
      453.Candlebox_-_You.mp3  06:27  4.4M  
      454.Neil Young-Cinna..>  06:27  4.1M  
      455.Screaming Trees-..>  06:29  5.4M  
      456.Kiss-1976-Rock A..>  06:28  3.5M  
      457.Pink Floyd-Shine..>  06:31   12M  
      458.Nirvana-1994-Unp..>  06:30  5.1M  
      459.Judas Priest-198..>  06:31  5.0M  
      460.Meat Puppets-Bac..>  06:32  5.0M  
      461.The Allman Broth..>  06:33  6.1M  
      462.Lenny Kravitz-19..>  06:34  5.1M  
      463.Metallica-1984-R..>  06:34  6.3M  
      464.Led Zeppelin-196..>  06:36  9.2M  
      465.Alice In Chains-..>  06:35  4.0M  
      466.sammy_hagar-the_..>  06:36  3.5M  
      467.Alice Cooper-197..>  06:37  4.9M  
      468.Aerosmith-1994-B..>  06:37  5.2M  
      469.Rolling Stones-2..>  06:38  5.2M  
      470.Ozzy Osbourne-19..>  06:38  3.9M  
      471.The Who-1974-Odd..>  06:40  6.6M  
      472.Soundgarden-1996..>  06:40  5.3M  
      473.Molly Hatchet-20..>  06:41  4.6M  
      474.The Presidents O..>  06:41  3.2M  
      475.Tom Petty & The ..>  06:43  8.1M  
      476.Queensrÿche-199..>  06:43  6.2M  
      477.ZZ Top-1987-El L..>  06:44  5.9M  
      478.Rush-Entre Nous.mp3  06:45  8.5M  
      479.joe_satriani-sat..>  06:45  3.0M  
      480.Romantics - What..>  06:46  2.7M  
      481.U2-1988-Rattle A..>  06:46  5.4M  
      482.Led Zeppelin-197..>  06:47  5.4M  
      483.Alice In Chains-..>  06:47  3.9M  
      484.Queen-1992-Great..>  06:48  3.3M  
      485.Van Halen-1986-5..>  06:49  5.5M  
      486.FastWay-Say What..>  06:49  3.9M  
      487.Billy_Idol_-_Gre..>  06:50  6.6M  
      488.Led Zeppelin-196..>  06:50  6.0M  
      489.Dream Theater-Pu..>  06:54   11M  
      490.Gary Hoey - Anim..>  06:52  3.7M  
      491.Megadeth-1986-Pe..>  06:54  7.0M  
      492.The Doors-1990-L..>  06:55  3.9M  
      493.Pink Floyd-1987-..>  06:55  4.5M  
      494.Nirvana-1994-Unp..>  06:57  7.1M  
      495.Aldo Nova-1991-A..>  06:57  4.7M  
      496.Jimi Hendrix-198..>  06:58  3.9M  
      497.Pearl Jam-Crazy ..>  06:59  7.8M  
      498.The Rolling Ston..>  07:00  8.0M  
      499.ACDC-1977-Let Th..>  07:00  5.6M  
      500.The Cars-Bye Bye..>  07:01  5.9M  
      501.Dio-1984-The Las..>  07:02  8.0M  
      502.Everclear-2004-T..>  07:03  4.5M  
      503.Aerosmith-1973-A..>  07:04  6.1M  
      504Foo Fighters-1997..>  07:04  4.8M  
      505.Billy Squier - T..>  07:05  4.9M  
      506.Rush-1975-Fly By..>  07:05  6.3M  
      507.Tom Petty & The ..>  07:07  8.4M  
      508.Alice In Chains-..>  07:08  8.1M  
      509.Def Leppard-1983..>  07:08  4.1M  
      510.Led Zeppelin-197..>  07:09  5.4M  
      511.Cracker_-_Low.mp3    07:10  6.3M  
      512.Cheap Trick-1979..>  07:10  5.4M  
      513.Metallica-1996-L..>  07:12  7.5M  
      514.Boston-1976-Bost..>  07:11  3.9M  
      515.The Who-2004-The..>  07:13  8.5M  
      516.Logical Song (Su..>  07:13  4.7M  
      517.Screaming Trees-..>  07:15  7.0M  
      518.Donnie Iris-Ah! ..>  07:14  3.4M  
      519.Bad Company-1985..>  07:15  4.7M  
      520.Best Collection ..>  07:17  6.7M  
      521.Offspring-Self E..>  07:16  3.9M  
      522.Ozzy Osbourne-19..>  07:17  4.2M  
      523.Deep Purple-1998..>  07:18  4.0M  
      524.Led Zeppelin-199..>  07:18  4.3M  
      525.U2-1991-Achtung ..>  07:19  3.8M  
      526.Thin Lizzy-Cowbo..>  07:20  7.6M  
      527.Van Halen-1983-1..>  07:20  5.8M  
      528.Robin_Trower_-_E..>  07:23  8.6M  
      529.Stone Temple Pil..>  07:21  3.3M  
      530.Foreigner-1982-R..>  07:23  5.5M  
      531.Aerosmith-1987-C..>  07:24  4.7M  
      532.Michael Schenker..>  07:24  4.3M  
      533.Alice In Chains-..>  07:25  4.8M  
      534.Pink Floyd-1973-..>  07:25  2.5M  
      535.Scorpions-1979-L..>  07:26  6.8M  
      536.Megadeth-1997-Cr..>  07:27  8.6M  
      537.The Rolling Ston..>  07:28  5.3M  
      538.Pearl Jam-1993-V..>  07:29  6.5M  
      539.Led Zeppelin-197..>  07:30  6.8M  
      540.Soundgarden-1994..>  07:30  4.9M  
      541.Rainbow-Stone Co..>  07:31  4.9M  
      542.Queensryche-Quee..>  07:32  6.0M  
      543.Have_A_Nice_Deca..>  07:32  4.2M  
      544.Creed-1997-My Ow..>  07:33  5.9M  
      545.Rush-1990-Chroni..>  07:33  4.8M  
      546.The Doors-1971-T..>  07:34  4.5M  
      547.Alice In Chains-..>  07:35  7.8M  
      548.Angel City-Face ..>  07:36  7.1M  
      549.Brother_Cane_-_A..>  07:36  4.3M  
      550.Gruntruck-CrazyL..>  07:37  4.4M  
      551.Under_My_Wheels_..>  07:37  2.6M  
      552.Metallica-1997-R..>  07:39  6.2M  
      553.Black Sabbath-NI..>  07:38  3.8M  
      554.Zebra-Tell Me Wh..>  07:39  3.5M  
      555.Melvins-Revolve.mp3  07:40  4.3M  
      556.Def Leppard-1987..>  07:40  5.7M  
      557.Led Zeppelin-197..>  07:41  5.7M  
      558.Scorpions-1980-A..>  07:42  5.8M  
      559.Tonic-Open Up Yo..>  07:42  5.1M  
      560.ZZ Top-1983-Elim..>  07:43  4.9M  
      561.Ted Nugent-Live ..>  07:44  4.6M  
      562.Jimi Hendrix-198..>  07:44  3.8M  
      563.Sammy Hagar-1994..>  07:44  3.3M  
      564.Godsmack-1998-Go..>  07:45  4.8M  
      565.billy_squier-eve..>  07:46  6.1M  
      566.Metallica-1991-M..>  07:47  9.2M  
      567.Bad Company-1985..>  07:48  8.7M  
      568.U2-1980-Boy-01-I..>  07:49  4.2M  
      569.Rush-2000-Differ..>  07:50  7.7M  
      570.Queensrÿche-199..>  07:50  7.7M  
      571.Led Zeppelin-199..>  07:52  8.1M  
      572.Nirvana-2002-Nir..>  07:52  6.0M  
      573.The Cars-Good Ti..>  07:53  3.4M  
      574.UFO_-_(Lights_Ou..>  07:53  3.3M  
      575.Alice In Chains-..>  07:54  6.6M  
      576.Queen-1977-News ..>  07:54  4.4M  
      577.Pink Floyd-2001-..>  07:57   12M  
      578.The Rolling Ston..>  07:55  4.9M  
      579.Soundgarden-Into..>  07:58  9.1M  
      580.Led Zeppelin-197..>  07:59  5.7M  
      581.Guns N' Roses-19..>  08:00  9.3M  
      582.Lynyrd Skynyrd-2..>  08:00  5.5M  
      583.Kiss-1982-Killer..>  08:00  2.4M  
      584.Stevie Ray Vaugh..>  08:01  2.2M  
      585.Who-The Real Me.mp3  08:02  4.7M  
      586.ACDC-1979-Highwa..>  08:02  4.2M  
      587.Black Crowes-199..>  08:03  5.8M  
      588.Quiet Riot-Metal..>  08:04  7.3M  
      589.Van Halen-Finish..>  08:04  4.0M  
      590.Billboard_Top_10..>  08:05  4.6M  
      591.ozzy_osbourne-th..> 00:42  3.9M  
      592.The Cult-1989-So..> 00:43  4.8M  
      593.Alice Cooper-197..> 00:44  6.3M  
      594.U2-1988-Rattle A..> 00:44  5.2M  
      595.Led Zeppelin-197..> 00:45  4.4M  
      596.Tool-1996-Ænema..> 00:46  8.5M  
      597.Aerosmith-1993-G..> 00:47  8.4M  
      598.Steve Miller Ban..> 00:47  2.7M  
      599.Drivin' N' Cryin..> 00:48  4.6M  
      600.Goodness - Super..> 00:48  3.0M  
      601.Rush-1981-Moving..> 00:49  5.1M  
      602.Deep Purple-Spac..> 00:50  8.1M  
      603.Pearl Jam-1991-T..> 00:51  5.3M  
      604.Led Zeppelin-197..> 00:51  5.1M  
      605.Scorpions-1979-L..> 00:52  6.7M  
      606.ZZ Top-1983-Elim..> 00:53  4.7M  
      607.Joe_Walsh_-_Turn..> 00:55  8.3M  
      608.Aerosmith-1988-T..> 00:53  2.6M  
      609.Alice In Chains-..> 00:54  4.5M  
      610.Led Zeppelin-199..> 00:56  5.9M  
      611.Tom Petty & The ..> 00:56  4.7M  
      612.Bob Seger-1978-S..> 00:56  3.0M  
      613.Metallica-1998-G..> 00:57  5.6M  
      614.Montrose-Space S..> 00:59  9.8M  
      615.Best Collection ..> 00:58  4.6M  
      616.Emerson Lake & P..> 01:00  7.2M  
      617.ACDC-1979-Highwa..> 01:00  4.7M  
      618.Bad Company-1974..> 01:02  5.2M  
      619.Mother Love Bone..> 01:01  4.7M  
      620.The Doors-1971-T..> 01:03  6.1M  
      621.Ozzy Osbourne-19..> 01:03  5.0M  
      622.Jimi Hendrix-196..> 01:05  7.7M  
      623.Def Leppard-1980..> 01:04  4.4M  
      624.Gruntruck - Trib..> 01:05  4.2M  
      625.Van Halen-1979-V..> 01:06  2.9M  
      626.Bush-1994-Sixtee..> 01:07  7.5M  
      627.Pink Floyd-1987-..> 01:07  5.2M  
      628.Judas Priest-200..> 01:09  9.8M  
      629.Foghat-I_Just_Wa..> 01:08  6.0M  
      630.Ufo-Lights Out.mp3  01:09  4.8M  
      631.Megadeth-1997-Cr..> 01:11  7.1M  
      632.Led Zeppelin-196..> 01:11  8.9M  
      633.Offspring-Gone A..> 01:12  4.1M  
      634.[Soundtrack]_(He..> 01:13  6.9M  
      635.Ted Nugent-1975-..> 01:13  3.4M  
      636.Buckcherry-1999-..> 01:14  3.3M  
      637.Aerosmith-1987-P..> 01:15  6.1M  
      638.Rolling Stones-1..> 01:15  3.4M  
      639.Screaming Trees-..> 01:16  7.6M  
      640.ACDC-1978-Powera..> 01:17  8.4M  
      641.Mad Season-1995-..> 01:18  7.0M  
      642.Van Halen-1979-V..> 01:18  2.7M  
      643.ZZ Top-1979-Degu..> 01:19  5.1M  
      644.Soundgarden-1989..> 01:19  4.5M  
      645.1989 -051 - skid..> 01:20  3.5M  
      646.Krokus-Screaming..> 01:21  9.2M  
      647.Rush-2000-Differ..> 01:22  8.6M  
      649.Screaming Trees-..> 01:23  7.2M  
      650.Black Sabbath-20..> 01:24  9.4M  
      651.Clash-1982-Comba..> 01:24  3.7M  
      652.Stone Temple Pil..> 01:25  5.1M  
      653.Deep Purple-1998..> 01:26  6.0M  
      654.Metallica-1988-...> 01:27  5.9M  
      655.Van Halen-1986-5..> 01:27  4.4M  
      656.Steve Miller Ban..> 01:27  2.9M  
      657.Scorpions-1979-L..> 01:29  8.8M  
      658.Nirvana-1994-Unp..> 01:28  4.1M  
      659.Led Zeppelin-197..> 01:30  7.3M  
      660.Brother_Cane_-_W..> 01:30  6.1M  
      661.Sweet-2005-Sweet..> 01:32  5.6M  
      662.Alice In Chains-..> 01:31  3.6M  
      663.Kiss-1980-Hot Li..> 01:32  3.2M  
      664.The Who-1971-Mea..> 01:33  5.4M  
      665.Pearl Jam-1993-V..> 01:33  3.9M  
      666.Aerosmith-1973-A..> 01:34  4.4M  
      667.Dazed_&_Confused..> 01:35  6.9M  
      668.The Rolling Ston..> 01:35  3.5M  
      669.Ozzy Osbourne-19..> 01:36  5.4M  
      670.Heart-2002-The E..> 01:37  6.9M  
      671.ACDC-1995-Ballbr..> 01:37  4.1M  
      672.The Cars-1979-Ca..> 01:38  4.9M  
      673.The Who-1969-Tom..> 01:38  3.7M  
      674.Lenny Kravitz-19..> 01:39  3.3M  
      675.Blue_Oyster_Cult..> 01:39  3.4M  
      676.White Zombie - 1..> 01:40  3.3M  
      677.Van Halen-Black ..> 01:41  5.0M  
      678.Tool-1996-Ænema..> 01:42  8.4M  
      679.Led Zeppelin-197..> 01:42  5.0M  
      680.Alice In Chains-..> 01:43  3.9M  
      681.Triumph-lay it o..> 01:44  5.9M  
      682.Judas Priest-197..> 01:44  4.8M  
      683.Jimi Hendrix-199..> 01:44  2.3M  
      684.Led Zeppelin-196..> 01:46  6.6M  
      684.Queensryche-Last..> 01:45  3.6M  
      685.Plant Robert-198..> 01:47  5.4M  
      686.SilverChair-Tomo..> 01:47  4.1M  
      687.Def Leppard-1981..> 01:48  6.5M  
      688.Bush-1994-Sixtee..> 01:48  6.1M  
      689.Aerosmith-1986-G..> 01:49  4.7M  
      690.Pearl Jam-1993-V..> 01:49  4.5M  
      691.Foo Fighters-199..> 01:50  5.0M  
      692.Black Sabbath-Mo..> 01:50  3.2M  
      693.Zebra_-_Who's_Be..> 01:51  4.9M  
      694.Soundgarden-1994..> 01:52  4.8M  
      695.Tom Petty and Th..> 01:52  2.6M  
      696.Guns N' Roses-19..> 01:55   13M  
      697.Led Zeppelin-197..> 01:54  9.1M  
      698.Sammy Hagar-1994..> 01:55  3.1M  
      699.Faces-Stay With ..> 01:56  6.4M  
      700.Iron Butterfly-1..> 02:00   20M  
      701.Van Halen-Little..> 01:58  5.3M  
      702.The Doors-1967-S..> 01:58  2.1M  
      703.Pink Floyd-1994-..> 01:59  2.6M  
      704.David Gilmour-19..> 02:00  5.9M  
      705.Rush-1990-Chroni..> 02:03   11M  
      706.Rage Against The..> 02:02  7.2M  
      707.George Thorogood..> 02:04  5.4M  
      708.ACDC-1976-Dirty ..> 02:04  5.3M  
      709.Stone Temple Pil..> 02:05  3.7M  
      710.The Rolling Ston..> 02:06  5.2M  
      711.Lynyrd Skynyrd-1..> 02:06  4.8M  
      712.Metallica-1995-K..> 02:08  7.2M  
      713.Jimi Hendrix-198..> 02:07  4.2M  
      714.Black Sabbath-20..> 02:09  9.3M  
      715.Joe Walsh-The Co..> 02:10   10M  
      716.Aerosmith-1997-N..> 02:10  3.6M  
      717.Werewolves of Lo..> 02:11  3.2M  
      718.Smashing Pumpkin..> 02:12  6.1M  
      719.Scorpions-1984-L..> 02:13  5.7M  
      720.Stone Temple Pil..> 02:13  5.5M  
      721.Ozzy Osbourne-19..> 02:14  5.6M  
      722.Candlebox_-_Cove..> 02:14  4.3M  
      723.Led Zeppelin-197..> 02:15  5.9M  
      724.U2-1983-Under a ..> 02:16  7.5M  
      725.Whitesnake-1984-..> 02:17  5.8M  
      726.Rush-1990-Chroni..> 02:18  5.8M  
      727.Yes-1981-Classic..> 02:19  8.6M  
      728.Soundgarden-1996..> 02:18  3.0M  
      729.Stevie Ray Vaugh..> 02:19  3.7M  
      730.Iron Maiden-2002..> 02:20  3.6M  
      731.Van Halen-Runaro..> 02:20  3.9M  
      732.The Rolling Ston..> 02:21  5.6M  
      733.Def Leppard-1987..> 02:22  7.5M  
      734.Pearl Jam - Stat..> 02:22  3.5M  
      735.ZZ Top-1979-Degu..> 02:24  7.1M  
      736.Bush-1994-Sixtee..> 02:24  5.9M  
      737.Tom Petty and Th..> 02:25  3.7M  
      738.Ozzy Osbourne-19..> 02:26  6.7M  
      739.The Doors-1967-S..> 02:25  3.0M  
      740.Queensryche-The ..> 02:28  8.5M  
      741.The Cars-My Best..> 02:27  3.4M  
      742.The Cult-1985-Lo..> 02:28  5.8M  
      743.Rush-1975-Fly By..> 02:30  7.9M  
      744.Jerry Cantrell-C..> 02:29  4.6M  
      745.The Tubes-Talk t..> 02:31  8.6M  
      746.Van Halen-1986-5..> 02:31  5.6M  
      747.White Zombie - 1..> 02:32  3.6M  
      748.Deep Purple-Lazy..> 02:34   10M  
      749.Metallica-1996-L..> 02:34  6.2M  
      750.Joe Satriani-198..> 02:36  7.7M  
      751.Stabbing Westwar..> 02:35  5.7M  
      752.ACDC-1979-Highwa..> 02:36  3.9M  
      753.The Rolling Ston..> 02:36  3.8M  
      754.Scorpions-1982-B..> 02:39  9.6M  
      755.Heart-1977-Littl..> 02:38  6.9M  
      756.Pink Floyd-Pigs ..> 02:42   16M  
      757.Chris Cornell-Su..> 02:40  5.4M  
      758.Bad Company-1976..> 02:42  7.0M  
      759.Rush-1990-Chroni..> 02:44  6.4M  
      760.top_500_rock_and..> 02:45   10M  
      761.Billboard_Top_10..> 02:45  4.4M  
      762.Van Halen-Secret..> 02:46  4.8M  
      763.Green Day-1997-N..> 02:45  2.0M  
      764.Fleetwood Mac-19..> 02:48   10M  
      765.Kiss-1982-Killer..> 02:47  3.8M  
      766.Pat Travers-Boom..> 02:49  7.0M  
      767.Aerosmith-1989-P..> 02:50  7.5M  
      768.Boston-1997-Grea..> 02:50  4.7M  
      769.Pat Benatar-Hell..> 02:51  5.6M  
      770.Ozzy Osbourne-20..> 02:51  3.7M  
      771.Breakfast in Ame..> 02:51  2.4M  
      772.Soundgarden-1994..> 02:52  4.7M  
      773.ZZ Top-1983-Elim..> 02:53  5.3M  
      774.Metallica-1998-G..> 02:53  3.3M  
      775.Rolling Stones-2..> 02:54  4.8M  
      776.Van Halen-1996-B..> 02:55  5.2M  
      777.Queen-2005-A Nig..> 02:55  4.4M  
      778.Alice In Chains-..> 02:57  9.8M  
      779.Tom Petty-1989-F..> 02:56  3.9M  
      780.Best Collection ..> 02:57  4.2M  
      781.Led Zeppelin-199..> 02:59  5.3M  
      782.Pearl Jam-1998-Y..> 02:58  3.7M  
      783.Spinal Tap-Big B..> 02:59  4.1M  
      784.Judas Priest-198..> 03:00  4.5M  
      785.Soundgarden-1991..> 03:01  5.4M  
      786.Rush-2000-Differ..> 03:02  8.2M  
      787.Kenny Wayne Shep..> 03:03   10M  
      788.Van Halen-1996-B..> 03:03  4.9M  
      789.Eric Johnson-Cli..> 03:05  7.6M  
      790.ACDC-1975-High V..> 03:04  3.7M  
      791.Lynyrd Skynyrd-1..> 03:05  3.5M  
      792.Guns N' Roses-19..> 03:06  4.1M  
      793.Jimi Hendrix-198..> 03:06  4.1M  
      794.Jane's Addiction..> 03:07  4.1M  
      795.Krokus-Stayed Aw..> 03:08  7.9M  
      796.Nirvana-1989-Ble..> 03:07  2.6M  
      797.Ted Nugent-Wango..> 03:09  6.7M  
      798.Stevie Ray Vaugh..> 03:09  4.3M  
      799.Were Not Gonna T..> 03:10  3.5M  
      800.Scorpions-1979-L..> 03:11  6.5M  
      801.Billboard_Top_10..> 03:11  6.0M  
      802.Deep Purple-Kent..> 03:12  6.5M  
      803.Black Sabbath-Ps..> 03:12  4.9M  
      804.Billy Squier - T..> 03:14  5.8M  
      805.Van Halen-1978-V..> 03:14  4.2M  
      806.Led Zeppelin-198..> 03:15  4.0M  
      807.Pearl Jam-1994-V..> 03:15  4.2M  
      808.UFO_-_(Obsession..> 03:16  3.8M  
      809.Aerosmith-1986-G..> 03:17  5.6M  
      810.Mother Love Bone..> 03:17  6.3M  
      811.Sammy Hagar-1994..> 03:18  3.8M  
      812.Monster Magnet-S..> 03:20   11M  
      813.Rush-1990-Chroni..> 03:19  5.4M  
      814.Foreigner-1982-R..> 03:21  9.6M  
      815.Mad Season-1995-..> 03:22  7.9M  
      816.The Cars-1979-Ca..> 03:23  6.1M  
      817.Alice In Chains-..> 03:24  6.6M  
      818.ZZ Top-A Fool Fo..> 03:24  3.9M  
      819.Van Halen-Feels ..> 03:25  4.1M  
      820.Queensryche-Take..> 03:25  5.4M  
      821.Pink Floyd-1973-..> 03:26  6.5M  
      822.Candlebox_-_It's..> 03:27  4.9M  
      823.Whitesnake-1984-..> 03:27  4.6M  
      824.Rush-1990-Chroni..> 03:28  6.0M  
      825.Mad Season-1995-..> 03:29  6.9M  
      826.Scorpions-1980-A..> 03:29  5.3M  
      827.Tom Petty & The ..> 03:30  5.6M  
      828.Metallica-1998-G..> 03:30  4.7M  
      829.Van Halen-1980-W..> 03:31  4.4M  
      830.Rolling Stones-2..> 03:32  5.3M  
      831.Def Leppard-1983..> 03:32  3.6M  
      832.The Kinks-1999-L..> 03:33  3.5M  
      833.Aerosmith-1973-A..> 03:34  9.7M  
      834.Stone Temple Pil..> 03:36   12M  
      835.Led Zeppelin-199..> 03:36  4.7M  
      836.Offspring-Gotta ..> 03:36  3.5M  
      837.Black Sabbath-Ne..> 03:36  3.6M  
      838.Brownsville_Stat..> 03:37  2.7M  
      839.Silverchair_-_Fr..> 03:39  9.7M  
      840.Scorpions-1984-L..> 03:38  5.4M  
      841.Pat Travers Band..> 03:40  5.5M  
      842.Creed-1997-My Ow..> 03:40  3.8M  
      842.Stone Temple Pil..> 03:41  5.1M  
      843.Van Halen-Top Of..> 03:41  3.5M  
      844.Green Day-Brain ..> 03:42  6.5M  
      845.The Who-1974-Odd..> 03:42  5.2M  
      846.ACDC-1977-Let Th..> 03:43  4.1M  
      847.Deep Purple-1998..> 03:44  4.1M  
      848.Metallica-1997-R..> 03:46  9.1M  
      849.Pearl Jam-1998-Y..> 03:45  4.6M  
      850.Queensrÿche-199..> 03:47   11M  
      851.Rush-1975-Caress..> 03:47  3.5M  
      852.Megadeth-1994-Yo..> 03:48  6.1M  
      853.Days Of The New-..> 03:49  5.4M  
      854.Robert Plant-199..> 03:49  4.3M  
      855.Ted Nugent-1990-..> 03:50  6.0M  
      856.David Bowie-1990..> 03:52  8.3M  
      857.Jimi Hendrix-196..> 03:52  4.1M  
      858.Cities_On_Flame_..> 03:53  3.8M  
      859.The Doors-1967-T..> 03:52  2.4M  
      860.Ozzy Osbourne-Wa..> 03:53  3.5M  
      861.The Rolling Ston..> 03:53  2.9M  
      862.Van Halen-1978-V..> 03:54  4.7M  
      863.Chris Cornell - ..> 03:55  5.3M  
      864.Lynyrd Skynyrd-1..> 03:56  6.1M  
      865.Beavis & Butt-He..> 03:56  3.9M  
      866.Aerosmith-1988-T..> 03:57  5.3M  
      867.Hunger-Vanishing..> 03:57  5.3M  
      868.ZZ Top-Beer Drin..> 03:58  5.5M  
      869.Queensryche-Revo..> 03:59  4.3M  
      870.Pink Floyd-1994-..> 04:00  5.7M  
      871.Led Zeppelin-197..> 04:01  8.2M  
      872.Judas Priest-200..> 04:01  4.4M  
      873.Pearl Jam - Brea..> 04:02  5.0M  
      874.Scorpions-1982-B..> 04:03  5.4M  
      875.Nirvana-1991-Nev..> 04:03  3.9M  
      876.Lynyrd Skynyrd-1..> 04:04  5.0M  
      877.U2-1983-War-07-T..> 04:05  5.6M  
      878.Robin Trower-Day..> 04:06  6.9M  
      879.Rob Zombie-Dragu..> 04:06  5.1M  
      880.Rush-Presto.mp3     04:07  5.3M  
      881.Billboard_Top_10..> 04:07  4.9M  
      882.Danzig_-_Mother.mp3 04:08  3.1M  
      883.Various Artists-..> 04:08  3.0M  
      884.Metallica-1997-R..> 04:10  6.4M  
      885.Johnny_&_Edgar_W..> 04:09  4.3M  
      886.Sammy Hagar-Mas ..> 04:11  5.7M  
      887.The Doors-Gloria..> 04:12  9.9M  
      888.ACDC-1986-Who Ma..> 04:12  3.2M  
      889.Soundgarden - Bi..> 04:13  5.7M  
      890.Queen-1992-Great..> 04:13  2.8M  
      891.Scorpions-1989-B..> 04:14  4.7M  
      892.The Rolling Ston..> 04:15  6.4M  
      893.Alice In Chains ..> 04:15  4.3M  
      894.Foghat-Stone Blu..> 04:16  3.7M  
      895.Black Sabbath-20..> 04:17  7.6M  
      896.The Cult-1989-So..> 04:17  4.7M  
      897.Foo Fighters-199..> 04:19  5.4M  
      898.Guns N' Roses-19..> 04:18  3.5M  
      899.Rush-What You're..> 04:20  7.2M  
      900.Joan Jett and th..> 04:20  4.1M  
      901.sammy_hagar-the_..> 04:21  2.9M  
      902.Bad_Company_-_Sk..> 04:21  4.6M  
      903.Metallica-1998-G..> 04:22  4.1M  
      904.ZZ TOP-1972-Rio ..> 04:23  5.6M  
      905.Queensryche-Brea..> 04:23  4.2M  
      906.Live-1994-Throwi..> 04:24  5.5M  
      907.Led Zeppelin-197..> 04:27   15M  
      908.Black Crowes-199..> 04:26  7.6M  
      909.Ted Nugent-Dog E..> 04:28  7.4M  
      910.Heart-1977-Littl..> 04:28  4.6M  
      911.Ozzy Osbourne-19..> 04:30  5.5M  
      912.Boston-1986-Thir..> 04:29  3.7M  
      913.Korn-Freak On A ..> 04:31  6.0M  
      914.Van Halen-1978-V..> 04:31  5.2M  
      915.UFO_-_(Obsession..> 04:32  3.3M  
      916.Pantera-Cemetary..> 04:33  6.5M  
      917.The Rolling Ston..> 04:33  3.9M  
      918.kiss-psycho_circ..> 04:34  5.1M  
      919.Alice In Chains-..> 04:35  7.6M  
      920.Black Sabbath-He..> 04:36  6.3M  
      921.Black Crowes-199..> 04:36  3.4M  
      922.Rainbow-Street O..> 04:37  4.1M  
      923.Pearl_Jam_-_Vita..> 04:36  3.5M  
      924.Tool-1993-Undert..> 04:38  6.8M  
      925.Great White-2002..> 04:38  6.0M  
      926.Van Halen-Mean S..> 04:40  6.9M  
      927.Nirvana-2002-Nir..> 04:39  3.5M  
      928.Tom Petty-1994-W..> 04:40  3.1M  
      929.Soundgarden-1991..> 04:42  6.0M  
      930.Def Leppard-1987..> 04:42  8.2M  
      931.The Who-Join Tog..> 04:43  6.0M  
      932.Aerosmith-1987-P..> 04:44  7.1M  
      933.Nazareth-Holiday..> 04:45  5.9M  
      934.Corrosion_Of_Con..> 04:46  6.6M  
      935.Alice In Chains-..> 04:47  7.3M  
      936.Seven_Mary_Three..> 04:47  3.5M  
      937.Triumph-A World ..> 04:48  7.0M  
      938.Ozzy Osbourne-19..> 04:48  4.0M  
      939.Stabbing Westwar..> 04:49  5.8M  
      940.ACDC-1978-Powera..> 04:50  5.0M  
      941.ZZ Top-1983-Elim..> 04:51  4.4M  
      943.The Tragically H..> 04:52  6.5M  
      944.Metallica-1996-L..> 04:52  7.0M  
      945.Everclear-2004-I..> 04:53  5.5M  
      946.Uriah Heep-steal..> 04:54  8.3M  
      947.Alice In Chains-..> 04:56  9.9M  
      948.Tool-1996-Ænema..> 04:57   12M  
      949.George Thorogood..> 04:58  7.3M  
      950.Chris Cornell-19..> 04:58  4.7M  
      951.Tesla-Little Suz..> 04:59  6.8M  
      952.Led Zeppelin-197..> 05:00  5.9M  
      953.Offspring-I Choo..> 05:00  3.6M  
      954.sammy_hagar-the_..> 05:01  3.2M  
      955.Bush-The Chemica..> 05:02  5.0M  
      956.Cheap_Trick_-_Ca..> 05:02  3.4M  
      957.Last Action Hero..> 05:03  5.3M  
      958.Rob Zombie-Livin..> 05:03  3.8M  
      959.Rush-Superconduc..> 05:04  6.6M  
      960.Last Action Hero..> 05:04  4.1M  
      961.Live-1999-The Di..> 05:05  4.1M  
      962.Ted Nugent-1975-..> 05:05  2.9M  
      963.Foo Fighters-199..> 05:06  5.4M  
      964.The Doors-1967-S..> 05:08   10M  
      965.Pearl Jam-2004-R..> 05:08  4.9M  
      966.Guns N' Roses-19..> 05:10  9.7M  
      967.The Rolling Ston..> 05:09  6.9M  
      968.Soundgarden-1994..> 05:10  3.6M  
      969.Creed-1997-My Ow..> 05:11  4.7M  
      970.38 Special-1990-..> 05:12  4.2M  
      971.Van Halen-1996-B..> 05:13  5.6M  
      972.The Rolling Ston..> 05:13  4.3M  
      973.Pearl Jam-Leavin..> 05:14  3.9M  
      974.Motley Crue-1989..> 05:15  6.5M  
      975.Scorpions-1990-C..> 05:15  6.6M  
      976.Lynyrd Skynyrd-1..> 05:16  4.4M  
      977.Heart-2001-Dog &..> 05:17  7.1M  
      978.Black Sabbath-20..> 05:17  6.4M  
      979.U2-1988-Rattle A..> 05:18  2.7M  
      980.Eagles-1982-The ..> 05:19  5.7M  
      981.Godsmack-1998-Go..> 05:20  6.7M  
      982.Def Leppard-1983..> 05:20  5.5M  
      983.Hold Your Head U..> 05:21  4.4M  
      984.Pink Floyd-1994-..> 05:22  7.8M  
      985.Blue_Oyster_Cult..> 05:22  4.0M  
      986.Candlebox_-_10,0..> 05:23  4.7M  
      987.Stevie Ray Vaugh..> 05:23  3.6M  
      988.Blackfoot_-_Stri..> 05:24  4.1M  
      989.Pearl Jam-1998-Y..> 05:24  3.2M  
      990.Tom Petty & The ..> 05:26  7.3M  
      991.Alice_In_Chains_..> 05:26  5.0M  
      992.sammy_hagar-the_..> 05:26  3.3M  
      993.the - animals - ..> 05:27  4.2M  
      994.Queens Of The St..> 05:27  3.1M  
      995.Cream-1990-Wheel..> 05:28  4.6M  
      996.Aerosmith-1973-A..> 05:28  5.0M  
      997.Smashing Pumpkin..> 05:30  5.9M  
      998.The Beatles-1968..> 05:29  2.5M  
      999.Collective_Soul_..> 05:30  3.3M  

Tidak ada komentar:

Posting Komentar